Preview of NWS' New Version of Forecast
This preview is not operational and should not be used for support decisions.
Latest weather observations around

Eufaula Municipal Airport (KEUF)

Using International System of Units (Switch to English Units)
Date/ Time (CST) Wind (kph) Vis. (km) Weather Sky Cond. Temp (°C) Rel. Humidity Wind Chill (°C) Heat Index (°C) Pressure Precip. (cm)
Air Dwpt 6 hour Altimeter (hPa) Sea level (hPa) 1 hr 3 hr 6 hr
Max Min
Feb 25 16:58 SSE 8 16.09 Cloudy OVC090 21 13     61%     1020 1019.6      
Feb 25 15:58 ENE 11 16.09 Cloudy OVC060 21 13     61%     1019.3 1018.9      
Feb 25 14:58 8 16.09 Cloudy BKN055 OVC070 21 13     61%     1019 1018.7      
Feb 25 13:58 ENE 15 16.09 Cloudy OVC046 21 14     65%     1020.3 1019.9      
Feb 25 12:58 9 16.09 Clear   19 15     76%       1020.2      
Feb 25 12:25 NNW 13 16.09 Cloudy BKN014 BKN019 OVC040 19 16     81%     1021.3        
Feb 25 11:58 NW 13 16.09 Cloudy BKN019 BKN045 OVC055 20 16     76%     1021.7 1021.3 0   0
Feb 25 10:58 NW 28 16.09 Cloudy FEW024 BKN034 OVC050 21 16     71%     1021 1020.8      
Feb 25 09:58 SSW 13 16.09 Cloudy FEW023 OVC095 26 19     67%   27 1020 1019.5      
Feb 25 09:40 SW 13 16.09 Cloudy FEW020 SCT029 OVC100 24 19     71%   25 1020        
Feb 25 08:58 SSW 13 16.09 Mostly Cloudy SCT018 BKN025 BKN100 25 20     74%   25 1019.7 1019.2      
Feb 25 08:06 SSW 8 16.09 Cloudy SCT007 OVC016 22 20     90%   22 1019.7        
Feb 25 07:58 S 9 16.09 Cloudy SCT007 OVC014 22 20     90%   22 1019.3 1019      
Feb 25 07:44 5 16.09 Cloudy BKN007 OVC014 21 20     93%     1019.3        
Feb 25 07:36 S 8 16.09 Cloudy SCT008 OVC015 21 19     93%     1019        
Feb 25 07:25 S 9 16.09 Cloudy BKN008 OVC013 21 19     93%     1019        
Feb 25 06:58 5 14.48 Mostly Cloudy BKN011 20 19     96%     1018.6 1018.3      
Feb 25 05:58 S 8 14.48 Mostly Clear FEW014 19 19     100%     1018.3 1017.9      
Feb 25 05:34 S 9 16.09 Partly Cloudy SCT014 19 19     97%     1018.3        
Feb 25 04:58 SSW 8 16.09 Mostly Cloudy BKN012 19 19     97%     1018 1017.6      
Feb 25 04:49 SSW 8 16.09 Mostly Cloudy BKN012 19 19     97%     1018        
Feb 25 03:58 S 11 16.09 Partly Cloudy SCT011 19 19     97%     1017.6 1017.2      
Feb 25 03:19 S 8 16.09 Mostly Cloudy BKN011 19 18     96%     1018        
Feb 25 02:58 Calm 16.09 Mostly Clear FEW012 19 18     93%     1018 1017.6      
Feb 25 02:38 S 8 16.09 Partly Cloudy SCT024 20 19     93%     1018        
Feb 25 02:19 S 9 16.09 Mostly Cloudy FEW012 BKN026 20 19     93%     1018.3        
Feb 25 02:14 S 9 16.09 Partly Cloudy FEW012 SCT026 20 19     93%     1018.3        
Feb 25 02:02 SSW 8 16.09 Mostly Cloudy SCT011 BKN026 21 19     90%     1018.6        
Feb 25 01:58 SSW 9 16.09 Mostly Cloudy BKN011 BKN026 21 19     90%     1018.6 1018.1      
Feb 25 00:58 SSW 11 16.09 Cloudy OVC011 21 18     87%     1019 1018.5      
Feb 25 00:31 SSW 8 16.09 Mostly Cloudy BKN013 20 18     87%     1019        
Feb 24 23:58 S 5 16.09 Clear CLR 20 17     84%     1019 1018.4      
Feb 24 22:58 SSW 8 16.09 Clear CLR 21 17     78%     1019 1018.6      
Feb 24 21:58 S 9 16.09 Clear CLR 22 17     71%   22 1019 1018.6      
Feb 24 20:58 SSW 13 16.09 Mostly Cloudy BKN090 23 17     66%   23 1018.6 1018.3      
Feb 24 19:58 SSW 13 16.09 Cloudy SCT070 OVC090 24 16     60%   24 1018.6 1018.4      
Feb 24 18:58 Calm 16.09 Mostly Cloudy BKN090 25 16     56%   25 1018.3 1017.8      
Feb 24 17:58 S 11 16.09 Cloudy OVC055 26 16     54%   26 1017.3 1016.9      
Feb 24 16:58 S 13 16.09 Mostly Clear FEW060 27 16     49%   28 1016.9 1016.6      
Feb 24 15:58 11 16.09 Clear CLR 28 15     44%   28   1016.6      
Feb 24 14:58 SSW 13 16.09 Mostly Clear FEW065 28 15     44%   28 1017.6 1017.1      
Feb 24 13:58 S 18 16.09 Partly Cloudy SCT060 29 16     45%   30 1018.3 1017.7      
Feb 24 12:58 S 15 16.09 Mostly Cloudy SCT050 BKN070 28 16     49%   28 1019.3 1019      
Feb 24 11:58 SSE 18 16.09 Mostly Cloudy SCT044 BKN060 29 17     49%   29 1020.7 1020.2      
Feb 24 10:58 9 16.09 Clear CLR 27 17     54%   28 1022 1021.5      
Feb 24 09:58 SSW 13 16.09 Clear CLR 26 17     60%   26 1022.7 1022.1      
Feb 24 08:58 S 13 16.09 Clear CLR 23 17     71%   23 1023 1022.6      
Feb 24 07:58 S 11 16.09 Clear CLR 19 17     87%     1023 1022.6      
Feb 24 06:58 Calm 8.05 Fog/Mist CLR 17 16     96%     1022.7 1022.5      
Feb 24 05:58 S 8 9.66 Fog/Mist FEW050 16 15     96%     1022.7 1022.2      
Feb 24 05:22 Calm 4.83 Fog/Mist SCT055 BKN070 14 14     97%     1022.4        
Feb 24 05:14 Calm 2.01 Fog/Mist FEW009 BKN060 14 14     100%     1022.4        
Feb 24 05:09 Calm 2.82 Fog/Mist BKN060 15 15     100%     1022.4        
Feb 24 04:58 Calm 8.05 Fog/Mist BKN060 14 14     97%     1022.4 1022      
Feb 24 04:51 Calm 4.83 Fog/Mist SCT060 15 14     96%     1022.4        
Feb 24 04:41 Calm 2.82 Fog/Mist BKN060 15 15     100%     1022.4        
Feb 24 04:06 Calm 9.66 Fog/Mist FEW060 15 14     93%     1022.4        
Feb 24 03:58 Calm 4.02 Fog/Mist CLR 15 14     96%     1022.4 1021.9      
Feb 24 02:58 Calm 8.05 Fog/Mist CLR 16 15     96%     1022 1021.7      
Feb 24 01:58 SW 5 16.09 Clear CLR 17 16     96%     1022.7 1022.2      
Feb 24 00:58 Calm 9.66 Fog/Mist CLR 17 16     96%     1023 1022.7      
Feb 23 23:58 Calm 16.09 Clear CLR 18 17     93%     1023.4 1022.9      
Feb 23 22:58 Calm 16.09 Mostly Clear FEW085 20 18     90%     1023.7 1023.4      
Feb 23 21:58 SSW 5 16.09 Cloudy FEW050 BKN070 OVC100 23 18     71%   24   1023.8      
Feb 23 20:58 S 9 16.09 Cloudy FEW065 OVC090 24 17     64%   24 1024.4 1023.8      
Feb 23 19:58 Calm 16.09 Cloudy OVC080 23 17     66%   23 1024.1 1023.6      
Feb 23 18:58 Calm 16.09 Cloudy SCT070 OVC110 22 17     73%   22 1024.1 1023.6      
Feb 23 17:58 SSE 5 16.09 Clear CLR 24 16     62%   24 1023.7 1023.3      
Feb 23 16:58 SE 8 16.09 Clear CLR 28 16     49%   28 1023.4 1023.1      
Feb 23 15:58 S 11 16.09 Clear CLR 29 15     42%   29 1023.7 1023.3      
Feb 23 14:58 SE 11 16.09 Clear CLR 29 15     42%   29 1024.4 1023.8      
Feb 23 13:58 SSW 13 16.09 Clear CLR 29 17     46%   30 1025.1 1024.5      
Feb 23 12:58 S 13 16.09 Clear CLR 29 17     48%   30   1025.4      
Feb 23 11:58 SSE 13 16.09 Clear CLR 28 18     55%   29 1027.1 1026.6      
Feb 23 10:58 S 11 16.09 Clear CLR 27 19     61%   28 1028.1 1027.8      
Feb 23 09:58 S 11 16.09 Partly Cloudy SCT017 26 19     67%   26 1028.5 1028.1      
Feb 23 08:58 SSE 13 16.09 Mostly Clear FEW012 23 19     76%   24 1028.8 1028.2      
Feb 23 08:23 ESE 11 16.09 Partly Cloudy SCT009 21 18     84%     1028.5        
Feb 23 07:58 SSE 9 16.09 Mostly Cloudy BKN008 20 18     87%     1028.5 1028.2      
Feb 23 07:36 8 16.09 Mostly Clear FEW008 19 18     90%     1028.5        
Feb 23 06:58 SSE 8 14.48 Clear CLR 18 17     96%     1028.1 1027.8      
Feb 23 05:58 SE 5 12.87 Clear CLR 16 15     96%     1028.1 1027.7      
Feb 23 04:58 Calm 16.09 Clear CLR 16 16     97%       1027.3      
Feb 23 03:58 Calm 14.48 Clear CLR 16 15     93%     1027.4 1027      
Feb 23 02:58 Calm 16.09 Clear CLR 16 15     93%       1027.2      
Feb 23 01:58 Calm 16.09 Clear CLR 16 15     93%     1027.8 1027.2      
Feb 23 00:58 SE 9 16.09 Clear CLR 20 16     78%     1027.8 1027.2      
Feb 22 23:58 Calm 16.09 Clear CLR 17 16     93%     1027.8 1027.3      
Feb 22 22:58 SSE 5 16.09 Clear CLR 20 16     78%     1028.1 1027.5      
Feb 22 21:58 SE 9 16.09 Clear CLR 22 17     73%   22 1028.5 1027.9      
Feb 22 20:58 SE 8 16.09 Clear CLR 22 17     73%   22 1028.1 1027.6      
Feb 22 19:58   16.09 Clear CLR 23 17     68%   23 1028.1 1027.7      
Feb 22 18:58 5 16.09 Clear CLR 21 17     76%     1027.8 1027.3      
Feb 22 17:58 ESE 8 16.09 Clear CLR 24 17     62%   25 1027.1 1026.8      
Feb 22 16:58 SE 8 16.09 Clear CLR 27 17     54%   28   1026.5      
Jun 12 05:58 Calm 12.87 Clear CLR 22 21     93%   23 1020.3 1019.9      
Jun 11 16:58 S 11 16.09 Clear CLR 28 23     72%   32 1018.6 1018.3      
Jun 11 15:31 SSE 15 16.09 Clear   29 23     68%   33 1020        
Jun 11 14:58 SSE 24 16.09 Cloudy FEW031 BKN042 OVC070 30 23     65%   34 1020 1019.6      
Jun 11 04:33 SE 8 16.09 Partly Cloudy SCT022 24 22     88%   25 1018.6        
Jun 10 15:58 ESE 8 16.09 Mostly Clear FEW080 32 16     37%   32 1016.9 1016.5      
Jun 10 07:58 ESE 8 16.09 Clear CLR 24 18     71%   24 1018.3 1017.9      
Jun 09 16:58 9 16.09 Mostly Clear FEW080 31 16     42%   31 1012.9 1012.4      
Jun 09 11:58 8 16.09 Mostly Clear FEW050 29 16     44%   29 1014.9 1014.3      
Jun 09 08:58 Calm 16.09 Clear CLR 26 17     56%   26 1014.9 1014.5      
Jun 09 04:58 Calm 9.66 Fog/Mist CLR 16 15     93%     1012.5 1012.1      
Jun 09 01:58 Calm 11.27 Clear CLR 17 16     93%     1011.9 1011.3      
Jun 07 21:58 Calm 16.09 Clear CLR 21 18     84%     1009.5 1009.2      
Jun 07 12:05 NE 15 14.48 Light Rain FEW014 SCT024 OVC042 23 21     87%   23 1007.8   0    
Jun 07 10:09 NNE 8 8.05 Light Rain and Fog/Mist FEW010 BKN020 OVC028 23 22     94%   24 1007.5   0    
Jun 07 09:27 Calm 16.09 Cloudy BKN010 OVC015 23 21     87%   24 1007.5        
Jun 07 08:58 8 16.09 Cloudy BKN010 OVC014 23 21     90%   23 1007.1 1006.8      
Jun 06 15:18 SE 13 16.09 Mostly Cloudy BKN024 BKN038 28 22     72%   30 1005.4        
Notice The following observation data may not be complete
Jun 06 06:58   16.09 Cloudy OVC055          %              
Jun 06 02:12 Calm 16.09 Cloudy BKN006 OVC055 24 22     90%   25 1008.5        
Jun 05 19:29 ESE 5 16.09 Mostly Cloudy BKN026 BKN032 26 22     79%   28 1008.8